Wind_Speed
14 13 12 11 10 10 8 7 6 6 6 7 9 10 10 9 6 6 5 5 4 6 11 8 6 7 10 14 17 15 14 19 24 21 16 11 12 9 13 13 12 8 9 11 17
14 13 13 12 11 10 9 7 6 6 6 7 9 10 8 6 5 3 3 4 2 2 0 4 8 9 13 15 13 16 16 27 22 20 18 16 19 12 8 14 16 14 8 13 18
15 14 13 12 11 10 9 8 6 6 6 6 8 8 5 4 2 4 6 7 8 7 2 4 6 10 15 14 20 18 23 21 24 19 21 21 23 22 16 14 18 15 15 19 18
14 14 14 12 11 10 9 8 7 7 6 5 6 6 4 1 1 3 5 6 7 7 3 2 6 10 12 14 17 16 19 21 25 20 19 18 21 24 21 21 8 16 19 22 19
15 14 14 13 12 11 10 8 6 7 6 5 4 4 2 4 3 4 2 4 5 4 2 2 3 6 11 8 12 16 19 13 17 22 25 22 23 20 21 17 11 23 18 18 20
16 14 12 11 11 11 9 7 6 5 5 4 4 3 2 8 7 4 1 2 1 0 1 1 1 2 5 10 10 4 14 16 18 19 21 20 23 21 25 15 10 23 18 20 16
15 15 12 10 8 6 5 4 4 3 3 3 3 3 5 1 7 5 1 3 4 2 2 2 2 5 2 7 6 12 13 15 18 21 22 22 22 25 22 14 23 25 21 16 14
15 13 12 10 7 5 4 4 3 2 3 2 2 2 4 7 9 5 5 5 5 4 4 4 4 7 8 3 9 11 11 15 14 11 19 15 19 3 3 15 20 22 24 25 15
15 11 9 7 4 5 3 5 2 1 1 1 1 1 3 7 5 4 4 3 3 4 5 4 6 9 6 11 10 10 13 8 7 4 4 11 14 20 4 8 6 6 14 16 14
13 10 6 3 3 5 1 4 3 1 2 1 2 4 5 7 5 6 5 5 6 4 5 8 9 10 9 9 9 6 9 7 11 7 9 13 13 12 13 12 12 15 17 15 14
13 8 4 1 2 4 4 3 2 2 5 5 1 4 3 2 6 8 6 5 5 8 10 7 10 11 7 4 9 8 9 11 8 6 10 13 16 16 19 19 19 18 18 19 14
13 7 2 4 3 3 6 2 4 5 6 6 7 9 8 5 4 9 10 9 8 8 4 9 13 7 3 6 8 10 13 12 8 8 9 15 19 20 20 20 24 23 22 21 17
11 6 1 7 3 3 4 4 7 7 6 3 4 4 6 9 6 6 13 11 10 9 7 10 4 3 9 8 10 12 12 12 11 13 16 19 20 21 7 12 11 13 14 10 9
10 5 4 8 4 2 1 8 8 4 5 9 6 5 5 4 5 7 11 9 7 9 5 8 6 8 10 11 11 14 6 8 10 12 12 8 10 12 10 12 9 13 11 9 5
9 6 7 6 7 1 6 10 4 2 4 7 5 3 4 9 5 7 7 12 15 10 7 4 11 10 12 13 8 13 1 9 12 15 18 19 11 14 4 9 9 6 3 6 3
8 7 7 4 2 5 8 1 1 5 4 7 4 5 7 8 7 5 7 8 9 14 16 18 11 9 12 4 8 1 9 12 17 13 15 19 14 10 9 7 10 11 4 4 3
7 5 4 2 2 7 3 2 5 6 3 4 5 5 8 11 10 8 11 13 12 13 17 19 18 14 10 12 9 11 12 10 10 11 11 6 6 14 4 5 3 6 5 4 6
3 2 3 4 6 5 1 5 7 2 4 1 4 9 12 6 11 9 12 13 12 15 15 15 14 15 13 16 15 11 9 10 17 12 10 12 7 2 5 4 5 3 3 3 3
8 7 4 6 5 3 6 7 4 2 3 4 9 11 10 6 6 7 13 15 14 9 14 11 15 3 6 7 9 11 11 8 12 16 14 16 14 7 13 9 8 5 5 8 8
6 5 6 5 5 1 5 5 4 3 3 4 6 4 8 5 6 4 7 1 6 9 8 10 12 14 8 7 15 13 12 8 10 11 18 14 13 8 12 7 7 5 6 9 15
1 4 5 5 5 6 5 4 5 5 5 5 8 11 12 12 12 13 7 6 6 6 8 12 10 14 9 14 16 8 13 12 14 13 11 12 6 10 2 3 5 5 11 18 20
2 3 3 4 6 2 5 3 4 10 9 11 8 14 17 16 16 16 14 11 2 8 11 13 7 14 18 16 12 13 18 15 12 15 11 13 16 6 6 6 4 12 18 16 18
8 3 3 3 3 3 5 10 7 9 7 4 6 5 5 10 9 11 12 9 10 11 8 8 9 12 16 8 5 12 17 16 16 16 19 13 8 9 9 13 17 21 18 19 17
5 3 0 3 4 5 5 5 5 3 10 7 9 10 11 14 14 11 12 6 6 11 3 6 15 18 16 19 6 7 7 13 17 13 17 20 21 20 22 20 18 22 21 18 17
6 2 2 3 1 8 3 5 9 6 5 7 5 6 8 9 13 16 17 14 13 13 14 11 20 21 21 22 21 22 21 21 22 22 22 23 25 23 24 22 21 22 18 18 19
5 5 4 9 6 8 1 3 8 7 5 8 12 13 12 15 15 19 19 19 19 15 14 15 18 18 23 21 21 23 23 26 26 26 27 27 29 25 31 27 18 15 19 20 22
6 5 3 5 3 5 4 5 6 7 9 10 11 12 13 16 21 22 22 22 17 15 13 11 7 6 14 16 13 15 21 21 24 25 22 24 25 18 16 13 14 17 19 23 28
Wind_Direction
357 353 351 349 345 341 337 333 329 325 328 327 326 324 324 328 335 350 321 266 276 272 241 242 239 220 217 224 222 231 242 244 242 242 249 213 231 222 252 258 268 287 296 322 334
354 349 344 341 338 335 330 323 312 310 318 327 332 331 334 348 37 321 348 51 31 3 243 223 219 213 216 222 215 219 234 244 251 252 263 250 231 228 248 260 262 277 276 309 326
349 347 339 335 330 327 323 312 298 293 303 321 334 337 339 346 291 61 85 75 62 49 233 206 205 216 229 228 222 226 245 255 251 257 253 260 244 240 240 243 260 299 301 310 312
342 342 339 331 324 317 314 301 282 274 279 301 329 332 340 2 302 144 87 66 55 57 62 156 210 217 231 222 231 244 250 259 266 244 243 250 260 269 232 242 271 282 294 302 304
336 336 337 332 325 318 312 298 273 264 259 272 316 322 342 244 159 168 98 53 46 50 78 86 193 229 239 243 234 243 254 245 254 252 254 260 255 257 257 258 266 268 290 290 295
334 334 336 336 329 323 315 304 287 267 251 266 314 320 295 243 190 183 147 38 244 346 185 164 41 276 271 249 236 305 258 252 248 250 251 252 260 256 258 263 268 231 273 285 288
340 337 336 334 333 330 323 317 309 285 248 254 302 319 256 257 189 200 206 241 252 246 255 233 250 259 300 243 255 266 261 245 240 245 251 252 259 251 257 249 248 227 246 283 272
343 342 338 336 343 351 347 335 309 273 241 242 287 320 253 207 206 223 252 250 241 261 261 256 242 273 255 272 241 249 244 254 232 240 246 239 257 141 198 243 241 264 246 256 263
346 344 343 343 16 359 31 17 15 122 192 219 180 217 166 197 202 216 200 245 224 255 252 234 231 261 230 239 240 208 264 216 208 222 278 225 255 228 208 247 252 258 213 231 240
350 344 348 357 65 25 13 38 61 52 29 60 232 227 199 164 196 212 236 243 237 233 227 223 232 240 226 236 259 254 240 214 259 180 256 258 250 248 238 246 255 257 252 221 241
349 346 349 143 111 33 19 3 308 208 244 260 191 286 199 226 218 214 209 198 225 238 252 198 257 231 256 279 309 283 269 264 264 269 266 262 262 263 258 257 247 241 241 250 241
348 350 2 155 138 81 52 27 22 316 293 250 246 248 246 231 243 226 208 220 215 251 230 229 238 259 247 259 257 256 261 259 266 275 280 284 276 278 268 257 250 243 231 228 234
1 353 106 158 147 110 78 36 350 342 262 179 215 217 203 211 247 218 200 216 239 245 234 270 1 261 218 221 258 252 265 280 283 307 281 271 280 256 247 247 223 241 231 206 212
14 30 124 144 109 117 20 333 335 337 268 147 190 169 186 223 239 208 215 228 225 262 223 258 145 209 225 251 267 272 258 273 271 276 282 331 291 283 277 242 247 194 204 181 198
26 59 128 132 137 5 300 319 315 299 271 126 157 155 218 240 351 178 221 230 252 230 232 219 200 222 247 267 291 277 275 264 279 276 283 270 259 270 205 191 174 171 157 183 263
35 88 114 121 61 335 326 329 169 231 250 173 184 209 245 215 239 273 239 230 268 262 240 258 261 261 269 259 240 310 247 247 253 265 262 253 248 254 197 220 172 185 331 252 231
49 88 101 85 291 332 358 170 235 251 103 181 225 233 269 266 259 250 257 240 241 237 239 236 235 228 241 227 200 230 250 274 269 224 255 85 246 253 174 175 264 287 272 303 266
330 339 318 319 323 336 235 221 248 31 258 52 268 277 266 278 247 262 262 259 224 261 268 275 254 201 199 235 264 231 269 279 285 276 273 155 250 169 209 172 293 246 182 238 270
277 272 274 313 331 339 229 232 277 341 352 297 293 267 264 237 266 269 266 270 271 222 254 281 250 148 250 234 235 250 232 301 288 271 264 261 245 221 211 222 184 181 234 274 286
271 233 245 293 332 264 237 257 276 251 298 269 279 266 272 256 250 252 281 342 264 246 251 279 274 256 246 238 242 248 286 241 216 265 259 249 240 236 168 176 181 243 290 304 296
46 249 238 312 324 233 248 292 290 273 256 264 270 268 273 277 281 280 268 274 245 253 245 276 257 271 214 240 256 199 225 224 269 267 256 272 268 89 147 243 250 266 299 305 303
358 236 275 324 258 251 265 329 335 278 263 263 265 266 271 275 274 273 263 256 237 276 251 244 271 269 262 253 269 262 272 250 243 246 237 262 270 298 246 255 272 281 303 299 302
333 293 310 335 275 289 310 282 269 279 269 267 260 251 294 273 276 263 271 293 296 259 267 279 248 269 262 236 248 243 245 247 257 252 259 255 235 161 212 251 292 305 300 297 292
340 301 302 49 4 313 322 289 276 245 272 264 272 275 270 266 258 265 272 249 232 276 349 291 265 260 270 292 158 241 259 258 233 240 252 249 266 271 273 281 297 300 296 295 286
1 9 331 301 176 318 278 288 299 292 242 274 251 254 292 276 276 273 274 276 268 262 257 254 265 270 275 277 276 276 266 260 252 246 250 265 270 274 279 285 292 296 289 285 285
353 335 301 287 294 290 262 278 299 304 265 278 267 292 286 273 278 290 294 282 277 274 263 257 261 269 267 269 268 272 274 258 258 262 263 264 267 274 278 276 274 284 276 279 286
341 300 275 272 251 278 305 300 301 304 281 264 287 294 281 281 294 289 282 279 271 273 265 268 270 294 265 266 288 262 256 256 253 253 253 258 266 286 292 268 287 288 294 291 291
Height
1522 1519 1517 1515 1513 1512 1510 1510 1509 1508 1507 1506 1505 1504 1502 1501 1499 1498 1499 1499 1497 1496 1496 1499 1500 1503 1503 1504 1505 1505 1499 1492 1488 1488 1488 1492 1496 1496 1495 1495 1494 1496 1496 1496 1494
1521 1518 1516 1513 1511 1510 1509 1508 1507 1507 1506 1505 1504 1503 1501 1500 1499 1500 1500 1496 1495 1495 1497 1498 1499 1501 1501 1500 1500 1497 1490 1484 1482 1483 1483 1485 1491 1492 1496 1492 1491 1491 1493 1495 1494
1520 1517 1514 1512 1510 1508 1506 1505 1504 1504 1504 1504 1503 1502 1501 1500 1501 1501 1498 1497 1497 1495 1496 1498 1499 1500 1497 1496 1494 1491 1483 1480 1479 1482 1487 1486 1485 1488 1493 1489 1491 1490 1494 1494 1492
1518 1515 1513 1510 1507 1505 1504 1503 1502 1502 1502 1502 1501 1501 1500 1501 1495 1500 1499 1498 1498 1497 1498 1497 1498 1496 1494 1491 1491 1490 1484 1485 1482 1484 1488 1486 1487 1482 1485 1485 1488 1491 1492 1493 1491
1516 1513 1510 1508 1505 1503 1501 1500 1500 1499 1500 1500 1500 1500 1500 1501 1499 1498 1498 1498 1498 1498 1499 1498 1496 1494 1491 1489 1489 1490 1485 1485 1487 1487 1486 1485 1481 1483 1482 1486 1485 1490 1490 1491 1489
1513 1511 1508 1506 1504 1502 1500 1499 1498 1498 1499 1499 1499 1499 1501 1499 1497 1498 1498 1498 1499 1499 1499 1498 1496 1496 1492 1492 1490 1484 1485 1484 1485 1483 1482 1481 1478 1479 1477 1481 1482 1480 1487 1489 1488
1511 1509 1506 1504 1501 1499 1498 1498 1497 1497 1497 1498 1498 1498 1500 1497 1497 1497 1498 1499 1499 1499 1499 1498 1498 1496 1494 1488 1489 1489 1488 1482 1480 1480 1477 1479 1474 1470 1473 1475 1475 1473 1480 1486 1485
1509 1506 1505 1503 1501 1499 1497 1496 1496 1496 1496 1497 1498 1498 1497 1495 1495 1497 1498 1498 1497 1498 1498 1497 1497 1495 1493 1490 1488 1485 1481 1477 1464 1471 1473 1476 1466 1464 1473 1474 1472 1473 1473 1480 1483
1507 1505 1503 1501 1500 1499 1498 1496 1495 1496 1496 1496 1497 1498 1493 1494 1496 1496 1497 1497 1497 1497 1496 1496 1496 1492 1491 1485 1479 1476 1474 1469 1464 1473 1470 1471 1463 1459 1470 1471 1473 1474 1472 1475 1479
1505 1503 1501 1501 1500 1499 1498 1497 1497 1497 1496 1496 1496 1500 1493 1492 1494 1494 1495 1495 1495 1495 1495 1495 1492 1487 1482 1479 1473 1465 1472 1472 1471 1466 1469 1465 1463 1460 1466 1469 1470 1471 1471 1468 1472
1503 1501 1500 1500 1500 1500 1499 1498 1501 1500 1496 1492 1492 1491 1491 1492 1491 1492 1492 1493 1493 1492 1488 1489 1485 1478 1471 1475 1476 1477 1476 1473 1468 1467 1472 1465 1459 1458 1460 1462 1462 1465 1465 1465 1468
1502 1499 1499 1499 1500 1500 1499 1501 1502 1502 1495 1492 1491 1490 1490 1490 1490 1488 1490 1491 1488 1484 1485 1486 1481 1473 1479 1481 1480 1477 1474 1470 1466 1468 1471 1465 1459 1455 1454 1453 1452 1452 1457 1460 1462
1499 1499 1498 1499 1501 1501 1502 1502 1500 1498 1495 1490 1490 1489 1489 1490 1486 1485 1487 1485 1483 1480 1479 1478 1472 1475 1479 1477 1478 1473 1473 1470 1471 1468 1467 1460 1453 1439 1442 1446 1448 1450 1452 1457 1460
1498 1497 1498 1499 1504 1502 1503 1500 1499 1498 1487 1485 1486 1487 1488 1487 1484 1483 1484 1484 1480 1476 1476 1473 1473 1477 1475 1475 1472 1472 1463 1471 1473 1472 1466 1455 1459 1438 1437 1439 1442 1446 1449 1452 1454
1498 1497 1498 1498 1499 1502 1502 1499 1498 1498 1488 1481 1483 1485 1485 1484 1482 1479 1481 1481 1477 1473 1479 1467 1472 1473 1473 1469 1469 1470 1470 1471 1470 1469 1464 1456 1455 1433 1439 1440 1442 1444 1447 1449 1451
1500 1499 1500 1500 1500 1500 1498 1498 1499 1494 1489 1479 1479 1480 1480 1479 1479 1478 1479 1479 1475 1471 1468 1467 1465 1470 1467 1468 1470 1469 1471 1468 1463 1461 1459 1440 1442 1425 1428 1434 1435 1443 1444 1448 1449
1502 1501 1500 1500 1501 1498 1496 1498 1492 1485 1479 1477 1476 1478 1477 1475 1474 1476 1472 1470 1470 1470 1465 1459 1459 1463 1469 1467 1470 1470 1466 1462 1457 1448 1447 1442 1450 1432 1432 1436 1438 1441 1444 1446 1447
1504 1502 1501 1499 1497 1496 1497 1494 1492 1477 1476 1479 1479 1476 1475 1470 1470 1472 1471 1467 1463 1465 1462 1459 1457 1455 1460 1460 1457 1454 1460 1461 1461 1446 1433 1442 1445 1424 1429 1435 1441 1442 1444 1444 1444
1502 1501 1500 1498 1496 1495 1496 1486 1481 1479 1482 1482 1478 1475 1468 1473 1476 1470 1466 1462 1457 1460 1465 1456 1455 1455 1461 1458 1462 1455 1464 1455 1459 1450 1448 1437 1423 1429 1433 1436 1439 1439 1441 1440 1441
1499 1499 1499 1496 1495 1495 1490 1485 1480 1483 1483 1483 1481 1474 1472 1468 1473 1468 1463 1460 1462 1463 1463 1458 1464 1452 1456 1462 1459 1459 1454 1461 1457 1460 1446 1424 1417 1417 1427 1428 1432 1436 1437 1438 1438
1497 1497 1495 1495 1494 1493 1488 1478 1482 1482 1484 1483 1478 1475 1472 1471 1468 1466 1462 1460 1462 1461 1464 1460 1461 1456 1454 1457 1452 1452 1452 1455 1451 1442 1445 1435 1417 1412 1424 1428 1430 1433 1434 1434 1432
1497 1492 1495 1494 1492 1489 1483 1484 1488 1482 1481 1479 1477 1474 1472 1468 1466 1464 1461 1458 1462 1463 1461 1458 1461 1454 1448 1444 1445 1447 1443 1445 1452 1450 1438 1439 1426 1416 1423 1424 1428 1430 1428 1428 1429
1499 1496 1493 1492 1486 1482 1485 1485 1485 1481 1478 1475 1473 1472 1471 1470 1470 1460 1459 1460 1462 1462 1458 1458 1456 1455 1442 1444 1447 1446 1441 1440 1437 1439 1442 1441 1417 1416 1420 1419 1419 1420 1422 1423 1423
1501 1494 1493 1492 1494 1491 1486 1482 1481 1481 1478 1478 1474 1473 1470 1468 1464 1459 1456 1459 1463 1463 1464 1465 1459 1458 1453 1439 1458 1450 1445 1437 1435 1447 1433 1420 1417 1412 1410 1411 1412 1413 1414 1416 1417
1503 1501 1500 1487 1487 1493 1491 1483 1480 1479 1478 1476 1469 1472 1471 1468 1460 1457 1457 1457 1458 1460 1462 1459 1454 1448 1440 1437 1438 1437 1439 1439 1439 1433 1433 1419 1413 1408 1406 1407 1408 1409 1411 1412 1412
1506 1504 1501 1494 1493 1492 1487 1477 1478 1478 1481 1472 1472 1470 1468 1470 1466 1461 1460 1459 1458 1457 1455 1454 1450 1447 1443 1436 1431 1431 1427 1422 1417 1414 1410 1407 1401 1404 1400 1400 1402 1404 1406 1405 1404
1505 1504 1503 1493 1488 1488 1478 1478 1478 1481 1477 1476 1475 1472 1470 1467 1465 1463 1462 1460 1458 1456 1452 1452 1454 1453 1440 1429 1429 1425 1412 1408 1406 1405 1404 1401 1394 1393 1392 1392 1396 1398 1401 1401 1400